owner,sensor,date,latitude,longitude,vertical_datum,sea_water_practical_salinity,qcFlag 
DISL,ioos:station:DISL:MHPA:1,2008-10-01T00:00:00Z,30.6671,-87.9365,0.7,6.6,11111222 
DISL,ioos:station:DISL:MHPA:1,2008-10-01T00:30:00Z,30.6671,-87.9365,0.7,6.6,11111222 
DISL,ioos:station:DISL:MHPA:1,2008-10-01T01:00:00Z,30.6671,-87.9365,0.7,6.6,11111222 
DISL,ioos:station:DISL:MHPA:1,2008-10-01T01:30:00Z,30.6671,-87.9365,0.7,6.7,11111222 
DISL,ioos:station:DISL:MHPA:1,2008-10-01T02:00:00Z,30.6671,-87.9365,0.8,6.6,11111222 
DISL,ioos:station:DISL:MHPA:1,2008-10-01T02:30:00Z,30.6671,-87.9365,0.8,6.7,11111222 
DISL,ioos:station:DISL:MHPA:1,2008-10-01T03:00:00Z,30.6671,-87.9365,0.8,6.7,11111222 
DISL,ioos:station:DISL:MHPA:1,2008-10-01T03:30:00Z,30.6671,-87.9365,0.8,6.6,11111222 
DISL,ioos:station:DISL:MHPA:1,2008-10-01T04:00:00Z,30.6671,-87.9365,0.8,6.6,11111222 
DISL,ioos:station:DISL:MHPA:1,2008-10-01T04:30:00Z,30.6671,-87.9365,0.8,6.9,11111222 
DISL,ioos:station:DISL:MHPA:1,2008-10-01T05:00:00Z,30.6671,-87.9365,0.8,6.6,11111222 
DISL,ioos:station:DISL:MHPA:1,2008-10-01T05:30:00Z,30.6671,-87.9365,0.8,6.6,11111222 
DISL,ioos:station:DISL:MHPA:1,2008-10-01T06:00:00Z,30.6671,-87.9365,0.8,6.6,11111222 
DISL,ioos:station:DISL:MHPA:1,2008-10-01T06:30:00Z,30.6671,-87.9365,0.6,7.9,11111222 
DISL,ioos:station:DISL:MHPA:1,2008-10-01T07:00:00Z,30.6671,-87.9365,0.5,7.9,11111222 
DISL,ioos:station:DISL:MHPA:1,2008-10-01T07:30:00Z,30.6671,-87.9365,0.5,8.0,11111222 
DISL,ioos:station:DISL:MHPA:1,2008-10-01T08:00:00Z,30.6671,-87.9365,0.5,8.0,11111222 
DISL,ioos:station:DISL:MHPA:1,2008-10-01T08:30:00Z,30.6671,-87.9365,0.5,8.0,11111222 
DISL,ioos:station:DISL:MHPA:1,2008-10-01T09:00:00Z,30.6671,-87.9365,0.4,8.0,11111222 
DISL,ioos:station:DISL:MHPA:1,2008-10-01T09:30:00Z,30.6671,-87.9365,0.4,8.0,11111222 
DISL,ioos:station:DISL:MHPA:1,2008-10-01T10:00:00Z,30.6671,-87.9365,0.3,8.1,11111222 
DISL,ioos:station:DISL:MHPA:1,2008-10-01T10:30:00Z,30.6671,-87.9365,0.3,8.1,11111222 
DISL,ioos:station:DISL:MHPA:1,2008-10-01T11:00:00Z,30.6671,-87.9365,0.2,8.1,11111222 
DISL,ioos:station:DISL:MHPA:1,2008-10-01T11:30:00Z,30.6671,-87.9365,0.2,8.1,11111222 
DISL,ioos:station:DISL:MHPA:1,2008-10-01T12:00:00Z,30.6671,-87.9365,0.2,8.2,11111222 
DISL,ioos:station:DISL:MHPA:1,2008-10-01T12:30:00Z,30.6671,-87.9365,0.1,8.2,11111222 
DISL,ioos:station:DISL:MHPA:1,2008-10-01T13:00:00Z,30.6671,-87.9365,0.1,8.2,11111222 
DISL,ioos:station:DISL:MHPA:1,2008-10-01T13:30:00Z,30.6671,-87.9365,0.2,8.2,11111222 
DISL,ioos:station:DISL:MHPA:1,2008-10-01T14:00:00Z,30.6671,-87.9365,0.2,8.1,11111222 
DISL,ioos:station:DISL:MHPA:1,2008-10-01T14:30:00Z,30.6671,-87.9365,0.2,8.1,11111222 
DISL,ioos:station:DISL:MHPA:1,2008-10-01T15:00:00Z,30.6671,-87.9365,0.2,8.1,11111222 
DISL,ioos:station:DISL:MHPA:1,2008-10-01T15:30:00Z,30.6671,-87.9365,0.2,8.0,11111222 
DISL,ioos:station:DISL:MHPA:1,2008-10-01T16:00:00Z,30.6671,-87.9365,0.2,7.9,11111222 
DISL,ioos:station:DISL:MHPA:1,2008-10-01T16:30:00Z,30.6671,-87.9365,0.2,7.9,11111222 
DISL,ioos:station:DISL:MHPA:1,2008-10-01T17:00:00Z,30.6671,-87.9365,0.2,7.9,11111222 
DISL,ioos:station:DISL:MHPA:1,2008-10-01T17:30:00Z,30.6671,-87.9365,0.2,7.9,11111222 
DISL,ioos:station:DISL:MHPA:1,2008-10-01T18:00:00Z,30.6671,-87.9365,0.2,7.8,11111222 
DISL,ioos:station:DISL:MHPA:1,2008-10-01T18:30:00Z,30.6671,-87.9365,0.3,7.7,11111222 
DISL,ioos:station:DISL:MHPA:1,2008-10-01T19:00:00Z,30.6671,-87.9365,0.3,7.8,11111222 
DISL,ioos:station:DISL:MHPA:1,2008-10-01T19:30:00Z,30.6671,-87.9365,0.3,7.8,11111222 
DISL,ioos:station:DISL:MHPA:1,2008-10-01T20:00:00Z,30.6671,-87.9365,0.3,7.9,11111222 
DISL,ioos:station:DISL:MHPA:1,2008-10-01T20:30:00Z,30.6671,-87.9365,0.4,7.9,11111222 
DISL,ioos:station:DISL:MHPA:1,2008-10-01T21:00:00Z,30.6671,-87.9365,0.4,7.9,11111222 
DISL,ioos:station:DISL:MHPA:1,2008-10-01T21:30:00Z,30.6671,-87.9365,0.4,7.6,11111222 
DISL,ioos:station:DISL:MHPA:1,2008-10-01T22:00:00Z,30.6671,-87.9365,0.4,7.6,11111222 
DISL,ioos:station:DISL:MHPA:1,2008-10-01T22:30:00Z,30.6671,-87.9365,0.4,7.7,11111222 
DISL,ioos:station:DISL:MHPA:1,2008-10-01T23:00:00Z,30.6671,-87.9365,0.4,7.8,11111222 
DISL,ioos:station:DISL:MHPA:1,2008-10-01T23:30:00Z,30.6671,-87.9365,0.4,7.7,11111222 
DISL,ioos:station:DISL:MHPA:1,2008-10-02T00:00:00Z,30.6671,-87.9365,0.4,7.7,11111222 
DISL,ioos:station:DISL:MHPA:1,2008-10-02T00:30:00Z,30.6671,-87.9365,0.4,7.7,11111222 
DISL,ioos:station:DISL:MHPA:1,2008-10-02T01:00:00Z,30.6671,-87.9365,0.4,7.7,11111222 
DISL,ioos:station:DISL:MHPA:1,2008-10-02T01:30:00Z,30.6671,-87.9365,0.5,7.8,11111222 
DISL,ioos:station:DISL:MHPA:1,2008-10-02T02:00:00Z,30.6671,-87.9365,0.5,7.7,11111222 
DISL,ioos:station:DISL:MHPA:1,2008-10-02T02:30:00Z,30.6671,-87.9365,0.5,7.8,11111222 
DISL,ioos:station:DISL:MHPA:1,2008-10-02T03:00:00Z,30.6671,-87.9365,0.5,7.8,11111222 
DISL,ioos:station:DISL:MHPA:1,2008-10-02T03:30:00Z,30.6671,-87.9365,0.5,7.7,11111222 
DISL,ioos:station:DISL:MHPA:1,2008-10-02T04:00:00Z,30.6671,-87.9365,0.5,7.8,11111222 
DISL,ioos:station:DISL:MHPA:1,2008-10-02T04:30:00Z,30.6671,-87.9365,0.5,7.8,11111222 
DISL,ioos:station:DISL:MHPA:1,2008-10-02T05:00:00Z,30.6671,-87.9365,0.6,7.6,11111222 
DISL,ioos:station:DISL:MHPA:1,2008-10-02T05:30:00Z,30.6671,-87.9365,0.6,7.6,11111222 
DISL,ioos:station:DISL:MHPA:1,2008-10-02T06:00:00Z,30.6671,-87.9365,0.5,7.6,11111222 
DISL,ioos:station:DISL:MHPA:1,2008-10-02T06:30:00Z,30.6671,-87.9365,0.5,7.5,11111222 
DISL,ioos:station:DISL:MHPA:1,2008-10-02T07:00:00Z,30.6671,-87.9365,0.5,7.4,11111222 
DISL,ioos:station:DISL:MHPA:1,2008-10-02T07:30:00Z,30.6671,-87.9365,0.5,7.4,11111222 
DISL,ioos:station:DISL:MHPA:1,2008-10-02T08:00:00Z,30.6671,-87.9365,0.5,7.5,11111222 
DISL,ioos:station:DISL:MHPA:1,2008-10-02T08:30:00Z,30.6671,-87.9365,0.5,7.5,11111222 
DISL,ioos:station:DISL:MHPA:1,2008-10-02T09:00:00Z,30.6671,-87.9365,0.4,7.6,11111222 
DISL,ioos:station:DISL:MHPA:1,2008-10-02T09:30:00Z,30.6671,-87.9365,0.4,7.8,11111222 
DISL,ioos:station:DISL:MHPA:1,2008-10-02T10:00:00Z,30.6671,-87.9365,0.4,7.6,11111222 
DISL,ioos:station:DISL:MHPA:1,2008-10-02T10:30:00Z,30.6671,-87.9365,0.3,7.5,11111222 
DISL,ioos:station:DISL:MHPA:1,2008-10-02T11:00:00Z,30.6671,-87.9365,0.3,7.6,11111222 
DISL,ioos:station:DISL:MHPA:1,2008-10-02T11:30:00Z,30.6671,-87.9365,0.3,7.5,11111222 
DISL,ioos:station:DISL:MHPA:1,2008-10-02T12:00:00Z,30.6671,-87.9365,0.3,7.5,11111222 
DISL,ioos:station:DISL:MHPA:1,2008-10-02T12:30:00Z,30.6671,-87.9365,0.2,7.7,11111222 
DISL,ioos:station:DISL:MHPA:1,2008-10-02T13:00:00Z,30.6671,-87.9365,0.2,7.7,11111222 
DISL,ioos:station:DISL:MHPA:1,2008-10-02T13:30:00Z,30.6671,-87.9365,0.2,7.7,11111222 
DISL,ioos:station:DISL:MHPA:1,2008-10-02T14:00:00Z,30.6671,-87.9365,0.2,7.7,11111222 
DISL,ioos:station:DISL:MHPA:1,2008-10-02T14:30:00Z,30.6671,-87.9365,0.2,7.2,11111222 
DISL,ioos:station:DISL:MHPA:1,2008-10-02T15:00:00Z,30.6671,-87.9365,0.2,7.3,11111222 
DISL,ioos:station:DISL:MHPA:1,2008-10-02T15:30:00Z,30.6671,-87.9365,0.2,6.5,11111222 
DISL,ioos:station:DISL:MHPA:1,2008-10-02T16:00:00Z,30.6671,-87.9365,0.2,6.5,11111222 
DISL,ioos:station:DISL:MHPA:1,2008-10-02T16:30:00Z,30.6671,-87.9365,0.2,6.5,11111222 
DISL,ioos:station:DISL:MHPA:1,2008-10-02T17:00:00Z,30.6671,-87.9365,0.2,6.3,11111222 
DISL,ioos:station:DISL:MHPA:1,2008-10-02T17:30:00Z,30.6671,-87.9365,0.2,6.6,11111222 
DISL,ioos:station:DISL:MHPA:1,2008-10-02T18:00:00Z,30.6671,-87.9365,0.2,6.5,11111222 
DISL,ioos:station:DISL:MHPA:1,2008-10-02T18:30:00Z,30.6671,-87.9365,0.2,6.5,11111222 
DISL,ioos:station:DISL:MHPA:1,2008-10-02T19:00:00Z,30.6671,-87.9365,0.3,6.5,11111222 
DISL,ioos:station:DISL:MHPA:1,2008-10-02T19:30:00Z,30.6671,-87.9365,0.3,6.6,11111222 
DISL,ioos:station:DISL:MHPA:1,2008-10-02T20:00:00Z,30.6671,-87.9365,0.3,6.3,11111222 
DISL,ioos:station:DISL:MHPA:1,2008-10-02T20:30:00Z,30.6671,-87.9365,0.4,6.6,11111222 
DISL,ioos:station:DISL:MHPA:1,2008-10-02T21:00:00Z,30.6671,-87.9365,0.4,6.6,11111222 
DISL,ioos:station:DISL:MHPA:1,2008-10-02T21:30:00Z,30.6671,-87.9365,0.5,6.8,11111222 
DISL,ioos:station:DISL:MHPA:1,2008-10-02T22:00:00Z,30.6671,-87.9365,0.5,6.7,11111222 
DISL,ioos:station:DISL:MHPA:1,2008-10-02T22:30:00Z,30.6671,-87.9365,0.5,6.6,11111222 
DISL,ioos:station:DISL:MHPA:1,2008-10-02T23:00:00Z,30.6671,-87.9365,0.5,6.6,11111222 
DISL,ioos:station:DISL:MHPA:1,2008-10-02T23:30:00Z,30.6671,-87.9365,0.5,6.7,11111222 
DISL,ioos:station:DISL:MHPA:1,2008-10-03T00:00:00Z,30.6671,-87.9365,0.6,6.6,11111222 
DISL,ioos:station:DISL:MHPA:1,2008-10-03T00:30:00Z,30.6671,-87.9365,0.6,6.6,11111222 
DISL,ioos:station:DISL:MHPA:1,2008-10-03T01:00:00Z,30.6671,-87.9365,0.6,6.8,11111222 
DISL,ioos:station:DISL:MHPA:1,2008-10-03T01:30:00Z,30.6671,-87.9365,0.6,6.9,11111222 
DISL,ioos:station:DISL:MHPA:1,2008-10-03T02:00:00Z,30.6671,-87.9365,0.6,6.9,11111222 
DISL,ioos:station:DISL:MHPA:1,2008-10-03T02:30:00Z,30.6671,-87.9365,0.6,7.0,11111222 
DISL,ioos:station:DISL:MHPA:1,2008-10-03T03:00:00Z,30.6671,-87.9365,0.6,7.0,11111222 
DISL,ioos:station:DISL:MHPA:1,2008-10-03T03:30:00Z,30.6671,-87.9365,0.7,7.0,11111222 
DISL,ioos:station:DISL:MHPA:1,2008-10-03T04:00:00Z,30.6671,-87.9365,0.7,7.2,11111222 
DISL,ioos:station:DISL:MHPA:1,2008-10-03T04:30:00Z,30.6671,-87.9365,0.7,7.1,11111222 
DISL,ioos:station:DISL:MHPA:1,2008-10-03T05:00:00Z,30.6671,-87.9365,0.7,7.1,11111222 
DISL,ioos:station:DISL:MHPA:1,2008-10-03T05:30:00Z,30.6671,-87.9365,0.7,6.8,11111222 
DISL,ioos:station:DISL:MHPA:1,2008-10-03T06:00:00Z,30.6671,-87.9365,0.7,7.3,11111222 
DISL,ioos:station:DISL:MHPA:1,2008-10-03T06:30:00Z,30.6671,-87.9365,0.7,7.3,11111222 
DISL,ioos:station:DISL:MHPA:1,2008-10-03T07:00:00Z,30.6671,-87.9365,0.7,7.3,11111222 
DISL,ioos:station:DISL:MHPA:1,2008-10-03T07:30:00Z,30.6671,-87.9365,0.7,7.3,11111222 
DISL,ioos:station:DISL:MHPA:1,2008-10-03T08:00:00Z,30.6671,-87.9365,0.7,7.3,11111222 
DISL,ioos:station:DISL:MHPA:1,2008-10-03T08:30:00Z,30.6671,-87.9365,0.7,7.4,11111222 
DISL,ioos:station:DISL:MHPA:1,2008-10-03T09:00:00Z,30.6671,-87.9365,0.7,7.4,11111222 
DISL,ioos:station:DISL:MHPA:1,2008-10-03T09:30:00Z,30.6671,-87.9365,0.6,7.4,11111222 
DISL,ioos:station:DISL:MHPA:1,2008-10-03T10:00:00Z,30.6671,-87.9365,0.6,7.5,11111222 
DISL,ioos:station:DISL:MHPA:1,2008-10-03T10:30:00Z,30.6671,-87.9365,0.6,7.5,11111222 
DISL,ioos:station:DISL:MHPA:1,2008-10-03T11:00:00Z,30.6671,-87.9365,0.5,7.6,11111222 
DISL,ioos:station:DISL:MHPA:1,2008-10-03T11:30:00Z,30.6671,-87.9365,0.5,7.6,11111222 
DISL,ioos:station:DISL:MHPA:1,2008-10-03T12:00:00Z,30.6671,-87.9365,0.4,7.6,11111222 
DISL,ioos:station:DISL:MHPA:1,2008-10-03T12:30:00Z,30.6671,-87.9365,0.4,7.6,11111222 
DISL,ioos:station:DISL:MHPA:1,2008-10-03T13:00:00Z,30.6671,-87.9365,0.4,7.7,11111222 
DISL,ioos:station:DISL:MHPA:1,2008-10-03T13:30:00Z,30.6671,-87.9365,0.3,7.9,11111222 
DISL,ioos:station:DISL:MHPA:1,2008-10-03T14:00:00Z,30.6671,-87.9365,0.3,8.0,11111222 
DISL,ioos:station:DISL:MHPA:1,2008-10-03T14:30:00Z,30.6671,-87.9365,0.3,8.0,11111222 
DISL,ioos:station:DISL:MHPA:1,2008-10-03T15:00:00Z,30.6671,-87.9365,0.2,8.1,11111222 
DISL,ioos:station:DISL:MHPA:1,2008-10-03T15:30:00Z,30.6671,-87.9365,0.2,8.0,11111222 
DISL,ioos:station:DISL:MHPA:1,2008-10-03T16:00:00Z,30.6671,-87.9365,0.2,7.9,11111222 
DISL,ioos:station:DISL:MHPA:1,2008-10-03T16:30:00Z,30.6671,-87.9365,0.2,7.9,11111222 
DISL,ioos:station:DISL:MHPA:1,2008-10-03T17:00:00Z,30.6671,-87.9365,0.2,7.8,11111222 
DISL,ioos:station:DISL:MHPA:1,2008-10-03T17:30:00Z,30.6671,-87.9365,0.2,8.0,11111222 
DISL,ioos:station:DISL:MHPA:1,2008-10-03T18:00:00Z,30.6671,-87.9365,0.2,8.0,11111222 
DISL,ioos:station:DISL:MHPA:1,2008-10-03T18:30:00Z,30.6671,-87.9365,0.2,8.0,11111222 
DISL,ioos:station:DISL:MHPA:1,2008-10-03T19:00:00Z,30.6671,-87.9365,0.2,8.0,11111222 
DISL,ioos:station:DISL:MHPA:1,2008-10-03T19:30:00Z,30.6671,-87.9365,0.2,8.0,11111222 
DISL,ioos:station:DISL:MHPA:1,2008-10-03T20:00:00Z,30.6671,-87.9365,0.2,8.0,11111222 
DISL,ioos:station:DISL:MHPA:1,2008-10-03T20:30:00Z,30.6671,-87.9365,0.3,7.9,11111222 
DISL,ioos:station:DISL:MHPA:1,2008-10-03T21:00:00Z,30.6671,-87.9365,0.3,7.9,11111222 
DISL,ioos:station:DISL:MHPA:1,2008-10-03T21:30:00Z,30.6671,-87.9365,0.3,8.0,11111222 
DISL,ioos:station:DISL:MHPA:1,2008-10-03T22:00:00Z,30.6671,-87.9365,0.4,8.0,11111222 
DISL,ioos:station:DISL:MHPA:1,2008-10-03T22:30:00Z,30.6671,-87.9365,0.4,8.0,11111222 
DISL,ioos:station:DISL:MHPA:1,2008-10-03T23:00:00Z,30.6671,-87.9365,0.4,8.1,11111222 
DISL,ioos:station:DISL:MHPA:1,2008-10-03T23:30:00Z,30.6671,-87.9365,0.4,8.1,11111222 
DISL,ioos:station:DISL:MHPA:1,2008-10-04T00:00:00Z,30.6671,-87.9365,0.5,8.2,11111222 
DISL,ioos:station:DISL:MHPA:1,2008-10-04T00:30:00Z,30.6671,-87.9365,0.5,8.2,11111222 
DISL,ioos:station:DISL:MHPA:1,2008-10-04T01:00:00Z,30.6671,-87.9365,0.5,8.2,11111222 
DISL,ioos:station:DISL:MHPA:1,2008-10-04T01:30:00Z,30.6671,-87.9365,0.5,8.2,11111222 
DISL,ioos:station:DISL:MHPA:1,2008-10-04T02:00:00Z,30.6671,-87.9365,0.5,8.2,11111222 
DISL,ioos:station:DISL:MHPA:1,2008-10-04T02:30:00Z,30.6671,-87.9365,0.6,8.2,11111222 
DISL,ioos:station:DISL:MHPA:1,2008-10-04T03:00:00Z,30.6671,-87.9365,0.6,8.2,11111222 
DISL,ioos:station:DISL:MHPA:1,2008-10-04T03:30:00Z,30.6671,-87.9365,0.6,8.2,11111222 
DISL,ioos:station:DISL:MHPA:1,2008-10-04T04:00:00Z,30.6671,-87.9365,0.6,8.3,11111222 
DISL,ioos:station:DISL:MHPA:1,2008-10-04T04:30:00Z,30.6671,-87.9365,0.7,8.3,11111222 
DISL,ioos:station:DISL:MHPA:1,2008-10-04T05:00:00Z,30.6671,-87.9365,0.7,8.2,11111222 
DISL,ioos:station:DISL:MHPA:1,2008-10-04T05:30:00Z,30.6671,-87.9365,0.7,8.2,11111222 
DISL,ioos:station:DISL:MHPA:1,2008-10-04T06:00:00Z,30.6671,-87.9365,0.7,8.3,11111222 
DISL,ioos:station:DISL:MHPA:1,2008-10-04T06:30:00Z,30.6671,-87.9365,0.7,8.3,11111222 
DISL,ioos:station:DISL:MHPA:1,2008-10-04T07:00:00Z,30.6671,-87.9365,0.7,8.3,11111222 
DISL,ioos:station:DISL:MHPA:1,2008-10-04T07:30:00Z,30.6671,-87.9365,0.7,8.2,11111222 
DISL,ioos:station:DISL:MHPA:1,2008-10-04T08:00:00Z,30.6671,-87.9365,0.7,8.2,11111222 
DISL,ioos:station:DISL:MHPA:1,2008-10-04T08:30:00Z,30.6671,-87.9365,0.6,8.3,11111222 
DISL,ioos:station:DISL:MHPA:1,2008-10-04T09:00:00Z,30.6671,-87.9365,0.6,8.3,11111222 
DISL,ioos:station:DISL:MHPA:1,2008-10-04T09:30:00Z,30.6671,-87.9365,0.6,8.3,11111222 
DISL,ioos:station:DISL:MHPA:1,2008-10-04T10:00:00Z,30.6671,-87.9365,0.5,8.3,11111222 
DISL,ioos:station:DISL:MHPA:1,2008-10-04T10:30:00Z,30.6671,-87.9365,0.5,8.5,11111222 
DISL,ioos:station:DISL:MHPA:1,2008-10-04T11:00:00Z,30.6671,-87.9365,0.5,8.4,11111222 
DISL,ioos:station:DISL:MHPA:1,2008-10-04T11:30:00Z,30.6671,-87.9365,0.4,8.6,11111222 
DISL,ioos:station:DISL:MHPA:1,2008-10-04T12:00:00Z,30.6671,-87.9365,0.4,8.6,11111222 
DISL,ioos:station:DISL:MHPA:1,2008-10-04T12:30:00Z,30.6671,-87.9365,0.4,8.6,11111222 
DISL,ioos:station:DISL:MHPA:1,2008-10-04T13:00:00Z,30.6671,-87.9365,0.3,8.8,11111222 
DISL,ioos:station:DISL:MHPA:1,2008-10-04T13:30:00Z,30.6671,-87.9365,0.3,8.8,11111222 
DISL,ioos:station:DISL:MHPA:1,2008-10-04T14:00:00Z,30.6671,-87.9365,0.3,8.8,11111222 
DISL,ioos:station:DISL:MHPA:1,2008-10-04T14:30:00Z,30.6671,-87.9365,0.2,8.8,11111222 
DISL,ioos:station:DISL:MHPA:1,2008-10-04T15:00:00Z,30.6671,-87.9365,0.2,8.8,11111222 
DISL,ioos:station:DISL:MHPA:1,2008-10-04T15:30:00Z,30.6671,-87.9365,0.2,8.8,11111222 
DISL,ioos:station:DISL:MHPA:1,2008-10-04T16:00:00Z,30.6671,-87.9365,0.1,8.8,11111222 
DISL,ioos:station:DISL:MHPA:1,2008-10-04T16:30:00Z,30.6671,-87.9365,0.1,8.9,11111222 
DISL,ioos:station:DISL:MHPA:1,2008-10-04T17:00:00Z,30.6671,-87.9365,0.1,8.9,11111222 
DISL,ioos:station:DISL:MHPA:1,2008-10-04T17:30:00Z,30.6671,-87.9365,0.1,8.4,11111222 
DISL,ioos:station:DISL:MHPA:1,2008-10-04T18:00:00Z,30.6671,-87.9365,0.1,8.6,11111222 
DISL,ioos:station:DISL:MHPA:1,2008-10-04T18:30:00Z,30.6671,-87.9365,0.1,8.6,11111222 
DISL,ioos:station:DISL:MHPA:1,2008-10-04T19:00:00Z,30.6671,-87.9365,0.0,8.6,11111222 
DISL,ioos:station:DISL:MHPA:1,2008-10-04T19:30:00Z,30.6671,-87.9365,0.0,8.5,11111222 
DISL,ioos:station:DISL:MHPA:1,2008-10-04T20:00:00Z,30.6671,-87.9365,0.1,8.4,11111222 
DISL,ioos:station:DISL:MHPA:1,2008-10-04T20:30:00Z,30.6671,-87.9365,0.1,8.3,11111222 
DISL,ioos:station:DISL:MHPA:1,2008-10-04T21:00:00Z,30.6671,-87.9365,0.1,8.4,11111222 
DISL,ioos:station:DISL:MHPA:1,2008-10-04T21:30:00Z,30.6671,-87.9365,0.2,7.9,11111222 
DISL,ioos:station:DISL:MHPA:1,2008-10-04T22:00:00Z,30.6671,-87.9365,0.2,7.9,11111222 
DISL,ioos:station:DISL:MHPA:1,2008-10-04T22:30:00Z,30.6671,-87.9365,0.2,8.2,11111222 
DISL,ioos:station:DISL:MHPA:1,2008-10-04T23:00:00Z,30.6671,-87.9365,0.3,8.6,11111222 
DISL,ioos:station:DISL:MHPA:1,2008-10-04T23:30:00Z,30.6671,-87.9365,0.3,8.6,11111222 
DISL,ioos:station:DISL:MHPA:1,2008-10-05T00:00:00Z,30.6671,-87.9365,0.3,8.6,11111222 
DISL,ioos:station:DISL:MHPA:1,2008-10-05T00:30:00Z,30.6671,-87.9365,0.4,8.7,11111222 
DISL,ioos:station:DISL:MHPA:1,2008-10-05T01:00:00Z,30.6671,-87.9365,0.4,8.8,11111222 
DISL,ioos:station:DISL:MHPA:1,2008-10-05T01:30:00Z,30.6671,-87.9365,0.4,8.8,11111222 
DISL,ioos:station:DISL:MHPA:1,2008-10-05T02:00:00Z,30.6671,-87.9365,0.4,8.8,11111222 
DISL,ioos:station:DISL:MHPA:1,2008-10-05T02:30:00Z,30.6671,-87.9365,0.5,8.9,11111222 
DISL,ioos:station:DISL:MHPA:1,2008-10-05T03:00:00Z,30.6671,-87.9365,0.5,8.9,11111222 
DISL,ioos:station:DISL:MHPA:1,2008-10-05T03:30:00Z,30.6671,-87.9365,0.5,8.9,11111222 
DISL,ioos:station:DISL:MHPA:1,2008-10-05T04:00:00Z,30.6671,-87.9365,0.6,8.8,11111222 
DISL,ioos:station:DISL:MHPA:1,2008-10-05T04:30:00Z,30.6671,-87.9365,0.6,8.8,11111222 
DISL,ioos:station:DISL:MHPA:1,2008-10-05T05:00:00Z,30.6671,-87.9365,0.6,8.8,11111222 
DISL,ioos:station:DISL:MHPA:1,2008-10-05T05:30:00Z,30.6671,-87.9365,0.7,8.8,11111222 
DISL,ioos:station:DISL:MHPA:1,2008-10-05T06:00:00Z,30.6671,-87.9365,0.7,8.8,11111222 
DISL,ioos:station:DISL:MHPA:1,2008-10-05T06:30:00Z,30.6671,-87.9365,0.7,8.7,11111222 
DISL,ioos:station:DISL:MHPA:1,2008-10-05T07:00:00Z,30.6671,-87.9365,0.7,8.7,11111222 
DISL,ioos:station:DISL:MHPA:1,2008-10-05T07:30:00Z,30.6671,-87.9365,0.7,8.7,11111222 
DISL,ioos:station:DISL:MHPA:1,2008-10-05T08:00:00Z,30.6671,-87.9365,0.7,8.8,11111222 
DISL,ioos:station:DISL:MHPA:1,2008-10-05T08:30:00Z,30.6671,-87.9365,0.7,8.9,11111222 
DISL,ioos:station:DISL:MHPA:1,2008-10-05T09:00:00Z,30.6671,-87.9365,0.7,8.9,11111222 
DISL,ioos:station:DISL:MHPA:1,2008-10-05T09:30:00Z,30.6671,-87.9365,0.7,8.9,11111222 
DISL,ioos:station:DISL:MHPA:1,2008-10-05T10:00:00Z,30.6671,-87.9365,0.7,8.9,11111222 
DISL,ioos:station:DISL:MHPA:1,2008-10-05T10:30:00Z,30.6671,-87.9365,0.6,8.9,11111222 
DISL,ioos:station:DISL:MHPA:1,2008-10-05T11:00:00Z,30.6671,-87.9365,0.6,8.9,11111222 
DISL,ioos:station:DISL:MHPA:1,2008-10-05T11:30:00Z,30.6671,-87.9365,0.6,8.9,11111222 
DISL,ioos:station:DISL:MHPA:1,2008-10-05T12:00:00Z,30.6671,-87.9365,0.5,8.9,11111222 
DISL,ioos:station:DISL:MHPA:1,2008-10-05T12:30:00Z,30.6671,-87.9365,0.5,8.9,11111222 
DISL,ioos:station:DISL:MHPA:1,2008-10-05T13:00:00Z,30.6671,-87.9365,0.4,9.0,11111222 
DISL,ioos:station:DISL:MHPA:1,2008-10-05T13:30:00Z,30.6671,-87.9365,0.4,9.0,11111222 
DISL,ioos:station:DISL:MHPA:1,2008-10-05T14:00:00Z,30.6671,-87.9365,0.4,9.1,11111222 
DISL,ioos:station:DISL:MHPA:1,2008-10-05T14:30:00Z,30.6671,-87.9365,0.3,9.1,11111222 
DISL,ioos:station:DISL:MHPA:1,2008-10-05T15:00:00Z,30.6671,-87.9365,0.3,9.1,11111222 
DISL,ioos:station:DISL:MHPA:1,2008-10-05T15:30:00Z,30.6671,-87.9365,0.3,9.0,11111222 
DISL,ioos:station:DISL:MHPA:1,2008-10-05T16:00:00Z,30.6671,-87.9365,0.3,9.1,11111222 
DISL,ioos:station:DISL:MHPA:1,2008-10-05T16:30:00Z,30.6671,-87.9365,0.2,9.1,11111222 
DISL,ioos:station:DISL:MHPA:1,2008-10-05T17:00:00Z,30.6671,-87.9365,0.2,9.1,11111222 
DISL,ioos:station:DISL:MHPA:1,2008-10-05T17:30:00Z,30.6671,-87.9365,0.2,9.0,11111222 
DISL,ioos:station:DISL:MHPA:1,2008-10-05T18:00:00Z,30.6671,-87.9365,0.2,9.1,11111222 
DISL,ioos:station:DISL:MHPA:1,2008-10-05T18:30:00Z,30.6671,-87.9365,0.2,9.1,11111222 
DISL,ioos:station:DISL:MHPA:1,2008-10-05T19:00:00Z,30.6671,-87.9365,0.2,9.1,11111222 
DISL,ioos:station:DISL:MHPA:1,2008-10-05T19:30:00Z,30.6671,-87.9365,0.2,9.0,11111222 
DISL,ioos:station:DISL:MHPA:1,2008-10-05T20:00:00Z,30.6671,-87.9365,0.2,9.2,11111222 
DISL,ioos:station:DISL:MHPA:1,2008-10-05T20:30:00Z,30.6671,-87.9365,0.3,9.2,11111222 
DISL,ioos:station:DISL:MHPA:1,2008-10-05T21:00:00Z,30.6671,-87.9365,0.3,9.1,11111222 
DISL,ioos:station:DISL:MHPA:1,2008-10-05T21:30:00Z,30.6671,-87.9365,0.3,9.1,11111222 
DISL,ioos:station:DISL:MHPA:1,2008-10-05T22:00:00Z,30.6671,-87.9365,0.3,9.1,11111222 
DISL,ioos:station:DISL:MHPA:1,2008-10-05T22:30:00Z,30.6671,-87.9365,0.3,9.1,11111222 
DISL,ioos:station:DISL:MHPA:1,2008-10-05T23:00:00Z,30.6671,-87.9365,0.4,9.1,11111222 
DISL,ioos:station:DISL:MHPA:1,2008-10-05T23:30:00Z,30.6671,-87.9365,0.4,8.9,11111222 
DISL,ioos:station:DISL:MHPA:1,2008-10-06T00:00:00Z,30.6671,-87.9365,0.4,8.9,11111222 
DISL,ioos:station:DISL:MHPA:1,2008-10-06T00:30:00Z,30.6671,-87.9365,0.4,8.9,11111222 
DISL,ioos:station:DISL:MHPA:1,2008-10-06T01:00:00Z,30.6671,-87.9365,0.4,8.9,11111222 
DISL,ioos:station:DISL:MHPA:1,2008-10-06T01:30:00Z,30.6671,-87.9365,0.5,8.9,11111222 
DISL,ioos:station:DISL:MHPA:1,2008-10-06T02:00:00Z,30.6671,-87.9365,0.5,8.9,11111222 
DISL,ioos:station:DISL:MHPA:1,2008-10-06T02:30:00Z,30.6671,-87.9365,0.5,9.0,11111222 
DISL,ioos:station:DISL:MHPA:1,2008-10-06T03:00:00Z,30.6671,-87.9365,0.5,8.9,11111222 
DISL,ioos:station:DISL:MHPA:1,2008-10-06T03:30:00Z,30.6671,-87.9365,0.6,8.9,11111222 
DISL,ioos:station:DISL:MHPA:1,2008-10-06T04:00:00Z,30.6671,-87.9365,0.6,8.9,11111222 
DISL,ioos:station:DISL:MHPA:1,2008-10-06T04:30:00Z,30.6671,-87.9365,0.6,9.0,11111222 
DISL,ioos:station:DISL:MHPA:1,2008-10-06T05:00:00Z,30.6671,-87.9365,0.7,9.0,11111222 
DISL,ioos:station:DISL:MHPA:1,2008-10-06T05:30:00Z,30.6671,-87.9365,0.7,9.0,11111222 
DISL,ioos:station:DISL:MHPA:1,2008-10-06T06:00:00Z,30.6671,-87.9365,0.7,9.0,11111222 
DISL,ioos:station:DISL:MHPA:1,2008-10-06T06:30:00Z,30.6671,-87.9365,0.7,9.0,11111222 
DISL,ioos:station:DISL:MHPA:1,2008-10-06T07:00:00Z,30.6671,-87.9365,0.7,9.0,11111222 
DISL,ioos:station:DISL:MHPA:1,2008-10-06T07:30:00Z,30.6671,-87.9365,0.8,9.1,11111222 
DISL,ioos:station:DISL:MHPA:1,2008-10-06T08:00:00Z,30.6671,-87.9365,0.8,9.2,11111222 
DISL,ioos:station:DISL:MHPA:1,2008-10-06T08:30:00Z,30.6671,-87.9365,0.8,9.3,11111222 
DISL,ioos:station:DISL:MHPA:1,2008-10-06T09:00:00Z,30.6671,-87.9365,0.8,9.3,11111222 
DISL,ioos:station:DISL:MHPA:1,2008-10-06T09:30:00Z,30.6671,-87.9365,0.8,9.4,11111222 
DISL,ioos:station:DISL:MHPA:1,2008-10-06T10:00:00Z,30.6671,-87.9365,0.8,9.4,11111222 
DISL,ioos:station:DISL:MHPA:1,2008-10-06T10:30:00Z,30.6671,-87.9365,0.8,9.2,11111222 
DISL,ioos:station:DISL:MHPA:1,2008-10-06T11:00:00Z,30.6671,-87.9365,0.8,9.2,11111222 
DISL,ioos:station:DISL:MHPA:1,2008-10-06T11:30:00Z,30.6671,-87.9365,0.7,9.3,11111222 
DISL,ioos:station:DISL:MHPA:1,2008-10-06T12:00:00Z,30.6671,-87.9365,0.7,9.3,11111222 
DISL,ioos:station:DISL:MHPA:1,2008-10-06T12:30:00Z,30.6671,-87.9365,0.7,9.3,11111222 
DISL,ioos:station:DISL:MHPA:1,2008-10-06T13:00:00Z,30.6671,-87.9365,0.6,9.3,11111222 
DISL,ioos:station:DISL:MHPA:1,2008-10-06T13:30:00Z,30.6671,-87.9365,0.6,9.3,11111222 
DISL,ioos:station:DISL:MHPA:1,2008-10-06T14:00:00Z,30.6671,-87.9365,0.6,9.3,11111222 
DISL,ioos:station:DISL:MHPA:1,2008-10-06T14:30:00Z,30.6671,-87.9365,0.6,9.3,11111222 
DISL,ioos:station:DISL:MHPA:1,2008-10-06T15:00:00Z,30.6671,-87.9365,0.5,9.3,11111222 
DISL,ioos:station:DISL:MHPA:1,2008-10-06T15:30:00Z,30.6671,-87.9365,0.5,9.3,11111222 
DISL,ioos:station:DISL:MHPA:1,2008-10-06T16:00:00Z,30.6671,-87.9365,0.5,9.4,11111222 
DISL,ioos:station:DISL:MHPA:1,2008-10-06T16:30:00Z,30.6671,-87.9365,0.5,9.4,11111222 
DISL,ioos:station:DISL:MHPA:1,2008-10-06T17:00:00Z,30.6671,-87.9365,0.5,9.3,11111222 
DISL,ioos:station:DISL:MHPA:1,2008-10-06T17:30:00Z,30.6671,-87.9365,0.4,9.3,11111222 
DISL,ioos:station:DISL:MHPA:1,2008-10-06T18:00:00Z,30.6671,-87.9365,0.4,9.3,11111222 
DISL,ioos:station:DISL:MHPA:1,2008-10-06T18:30:00Z,30.6671,-87.9365,0.4,9.3,11111222 